Location: Engle Ridge Observatory
(44.8122°N, 85.4398°W)
Time: 14:45:34
(UTC-04:00)

Daily predictions for brighter satellites

Satellite Brightness Start Highest point End
(mag) Time Altitude Azimuth Time Altitude Azimuth Time Altitude Azimuth
USA 238 DEB 4.2 19:46:10 10° SW 19:53:11 70° NW 20:00:15 10° NE
USA 238 4.2 19:46:15 10° SW 19:53:17 71° NW 20:00:21 10° NE
Timation 1 Rocket 4.4 19:47:48 10° NNW 19:53:48 76° ENE 19:59:46 10° SSE
Cosmos 1437 3.1 19:51:50 10° NNW 19:55:06 70° W 19:58:20 10° S
ATLAS 5 CENTAUR R/B 2.4 19:51:29 10° S 19:55:52 38° ESE 20:00:38 10° NE
Cosmos 2237 Rocket 3.0 19:50:42 10° SW 19:56:18 58° WNW 20:01:56 10° NNE
COSMO-SKYMED 1 2.7 19:57:25 10° NNE 20:01:48 85° WNW 20:06:08 10° SSW
Cosmos 1072 Rocket 4.5 19:57:25 10° S 20:03:24 61° E 20:09:25 10° NNE
Cosmos 1766 3.3 20:10:04 10° S 20:14:01 87° E 20:18:02 10° N
SL-16 R/B 2.3 20:11:25 10° SSW 20:17:07 85° WNW 20:22:52 10° NNE
Helios 1B rocket 3.0 20:13:24 10° NNE 20:17:13 36° E 20:21:02 10° SSE
CENTAUR R/B 3.6 20:13:55 10° SSE 20:18:11 20° ESE 20:22:46 10° ENE
Cosmos 1544 3.9 20:16:58 10° SSE 20:20:14 29° E 20:23:31 10° NNE
Cosmos 1766 Rocket 3.5 20:16:17 10° N 20:20:40 70° E 20:24:58 10° SSE
METEOR-M 4.1 20:16:38 10° SSE 20:21:56 70° ENE 20:27:17 10° N
NOSS 3-2 (C) 3.5 20:18:58 10° SSW 20:25:03 77° SE 20:31:44 10° NE
Cosmos 1378 4.0 20:21:58 10° NNW 20:25:37 53° W 20:29:14 10° S
Cosmos 1076 Rocket 3.6 20:21:59 10° N 20:26:20 84° W 20:30:40 10° S
CZ-2D R/B 4.3 20:24:44 14° ESE 20:27:20 27° ENE 20:30:39 10° N
Spot 1 4.1 20:23:46 10° SSE 20:28:28 81° ENE 20:32:55 10° NNW
Spot 2 Rocket 3.4 20:23:57 10° SSE 20:28:58 73° ENE 20:34:00 10° N
Cosmos 1269 Rocket 4.4 20:27:14 10° S 20:32:07 40° ESE 20:37:02 10° NE
Cosmos-2242 3.0 20:31:14 10° S 20:35:32 62° E 20:39:54 10° NNE
FENGYUN 3A 3.9 20:30:32 10° SE 20:35:39 48° ENE 20:40:51 10° N
Meteor 1-28 Rocket 3.4 20:32:34 10° N 20:36:18 71° WNW 20:39:59 10° SSW
ATLAS CENTAUR R/B 4.3 20:34:53 10° W 20:36:51 13° WSW 20:38:44 10° SW
Cosmos 2034 Rocket 4.0 20:32:00 10° S 20:38:16 77° E 20:44:37 10° N
Cosmos 1464 Rocket 4.1 20:33:12 10° S 20:39:26 80° W 20:45:39 10° N
H-2A R/B 3.3 20:39:09 19° SE 20:41:25 37° ENE 20:45:01 10° N
Gbstr 26 Del rocket 4.4 20:38:24 10° S 20:41:58 23° SE 20:42:57 22° ESE
CZ-4C R/B 3.9 20:37:10 10° W 20:42:09 33° NW 20:47:47 10° NNE
Cosmos 2151 4.1 20:38:48 10° NNE 20:42:11 23° ENE 20:42:41 22° E
Cosmos 1805 3.2 20:38:51 10° S 20:42:47 84° E 20:46:45 10° N
Cosmos 1953 2.2 20:40:10 10° S 20:44:09 89° E 20:48:09 10° N
ISS -1.9 20:41:46 10° S 20:44:06 22° SE 20:44:06 22° SE
ALOS 2.3 20:42:56 10° SSE 20:47:31 60° ENE 20:52:08 10° N
BREEZE-M DEB (TANK) 4.0 20:32:44 10° W 20:48:54 82° N 20:52:04 24° E
HJ-1C 3.9 20:46:13 10° S 20:49:32 60° W 20:52:53 10° NNW
Cosmos 1500 Rocket 3.6 20:49:26 10° N 20:53:49 56° E 20:57:01 18° SSE
Cosmos 1842 Rocket 3.7 20:51:09 10° SSE 20:55:18 48° E 20:59:30 10° NNE
Cosmos 1943 Rocket 3.3 20:52:00 10° N 20:56:39 26° NE 20:58:07 23° ENE
Cosmos 158 Rocket 4.4 20:52:27 10° SSE 20:56:45 32° ESE 21:01:03 10° NE
Cosmos 2369 Rocket 2.4 20:51:21 10° NNW 20:56:52 50° ENE 20:59:45 27° ESE
USA 215 3.2 20:50:42 10° NE 20:57:12 66° SE 21:03:41 10° SW
USA 186 3.8 21:01:16 12° N 21:01:16 12° N 21:01:29 10° N
Cosmos 1943 3.6 20:54:25 10° S 20:59:33 37° ESE 21:04:41 10° NE
Cosmos 1603 3.7 20:58:52 10° SSW 21:04:37 89° ESE 21:10:25 10° NNE
Cosmos 1470 2.6 21:02:26 10° S 21:06:16 61° E 21:10:07 10° NNE
Cosmos 1733 3.2 21:08:47 45° SE 21:09:32 54° E 21:13:20 10° NNE
SL-8 R/B 3.8 21:06:30 10° SW 21:11:09 54° SSE 21:12:17 43° ESE
SeaSat 1 3.8 21:08:04 10° NE 21:15:13 22° SSE 21:17:10 10° S
Meteor 1-29 3.7 21:09:25 10° N 21:12:52 56° WNW 21:16:18 10° SSW
ERS-1 Rocket 3.5 21:15:22 36° ENE 21:15:43 37° ENE 21:20:19 10° N
CZ-4B DEB 3.3 21:14:31 30° S 21:15:55 60° W 21:19:10 10° NNW
Helios 1A 4.4 21:13:44 10° SSW 21:17:41 39° W 21:21:40 10° NNW
Cosmos 1674 2.9 21:15:27 10° NNW 21:19:20 70° W 21:21:24 26° S
Resurs 01 Rocket 3.2 21:16:20 10° SSW 21:20:24 35° W 21:24:30 10° NNW
Cosmos 1110 Rocket 4.3 21:16:20 10° NNW 21:21:30 49° ENE 21:22:20 45° E
Cosmos 1743 Rocket 4.4 21:18:18 10° NNW 21:22:37 50° W 21:26:52 10° SSW
Exosat Rocket 4.5 21:24:03 10° NNW 21:30:37 70° ENE 21:35:15 31° SE
Abrixas 4.5 21:28:11 10° WSW 21:29:32 24° SW 21:29:32 24° SW
SJ-11-01 4.2 21:37:18 64° ENE 21:37:18 64° ENE 21:41:51 10° N
Meteor 1-16 Rocket 4.0 21:36:59 60° ESE 21:37:18 62° E 21:42:34 10° NNE
Meteor 1-11 4.2 21:33:07 10° N 21:38:55 70° ENE 21:40:06 55° SE
ATLAS 5 CENTAUR R/B 3.3 21:36:02 10° WSW 21:40:34 36° NW 21:45:31 10° NNE
Cosmos 839 Rocket 4.2 21:33:55 10° NW 21:41:45 85° WSW 21:44:15 42° SSE
GP-B 3.2 21:40:26 10° N 21:44:53 73° W 21:45:48 54° SSW
Cosmos 2279 Rocket 3.9 21:46:27 58° ESE 21:46:50 60° E 21:52:55 10° NNE
ASTEX 1 4.4 21:45:07 10° N 21:49:49 45° WNW 21:54:26 10° SSW
UNK 4.5 21:31:22 10° WNW 21:52:49 73° N 21:54:40 50° ENE
Cosmos 1655 Rocket 3.8 21:48:13 10° N 21:54:29 86° E 21:55:58 55° SSE
Cosmos 1331 Rocket 3.9 21:49:22 10° NNW 21:54:37 81° NE 21:54:37 81° NE
Cosmos 1939 Rocket 4.4 21:57:56 30° N 21:57:56 30° N 22:00:02 10° N
SL-24 R/B - RUBIN 2 4.3 21:53:55 10° NW 22:00:40 85° NE 22:01:21 73° SE
H-2A R/B 3.9 22:06:03 24° N 22:06:03 24° N 22:08:01 10° N
Cosmos 2026 Rocket 4.1 21:59:17 10° NNW 22:05:23 72° W 22:07:12 47° SSW
CENTAUR R/B 2.6 22:01:44 10° SW 22:07:52 79° NW 22:14:53 10° NE
Cosmos 1428 Rocket 4.3 22:02:25 10° N 22:08:44 82° E 22:08:53 81° ESE
Envisat 3.5 22:19:33 58° NW 22:19:33 58° NW 22:23:48 10° NNW
H-2A R/B 4.2 22:32:02 16° NNE 22:32:02 16° NNE 22:33:12 10° N
USA 215 4.0 22:37:00 29° NNE 22:40:05 49° NNW 22:46:19 10° W
Cosmos 2369 Rocket 3.9 22:35:58 10° NW 22:40:34 26° WSW 22:41:35 25° WSW
Cosmos 1943 Rocket 3.0 22:35:17 10° NNW 22:39:39 48° WNW 22:39:39 48° WNW
SeaSat 1 4.4 22:45:39 10° NNE 22:55:13 - WSW 22:47:51 23° N
